This is the latest recevied weather packets stored in our database for station/object SR5NLK-1. If no packets are shown the sender has not sent any weather packets the latest 1 day(s).
| Time | Temp. | Humidity | Pressure | Rain* | Wind** | Luminosity | Snow |
|---|---|---|---|---|---|---|---|
| 1778017052 | 16.11° C | 69% | 1010.4 hPa | 0 mm | 1.34 m/s, 45° | - | - |
| 1778016811 | 16.11° C | 68% | 1097.2 hPa | 0 mm | 2.24 m/s, 22° | - | - |
| 1778016752 | 16.11° C | 68% | 1010.4 hPa | 0 mm | 1.34 m/s, 22° | - | - |
| 1778016452 | 16.67° C | 68% | 1004.1 hPa | 0 mm | 2.68 m/s, 22° | - | - |
| 1778016152 | 16.67° C | 67% | 1016.7 hPa | 0 mm | 0.89 m/s, 22° | - | - |
| 1778015852 | 17.22° C | 67% | 974.3 hPa | 0 mm | 3.58 m/s, 0° | - | - |
| 1778015552 | 17.22° C | 66% | 1023.5 hPa | 0 mm | 2.24 m/s, 45° | - | - |
| 1778015252 | 17.78° C | 66% | 1045.7 hPa | 0 mm | 4.92 m/s, 22° | - | - |
| 1778014952 | 17.78° C | 64% | 972.9 hPa | 0 mm | 3.13 m/s, 315° | - | - |
| 1778014831 | 17.78° C | 64% | 1002.7 hPa | 0 mm | 3.58 m/s, 0° | - | - |
| 1778014652 | 17.78° C | 63% | 1010.4 hPa | 0 mm | 3.58 m/s, 67° | - | - |
| 1778014352 | 18.33° C | 63% | 1045.9 hPa | 0 mm | 1.79 m/s, 315° | - | - |
| 1778014052 | 18.33° C | 63% | 965.7 hPa | 0 mm | 0 m/s | - | - |
| 1778013752 | 18.33° C | 62% | 1007.3 hPa | 0 mm | 2.68 m/s, 0° | - | - |
| 1778013452 | 18.89° C | 62% | 1046 hPa | 0 mm | 1.79 m/s, 45° | - | - |
| 1778013152 | 18.89° C | 61% | 1010.4 hPa | 0 mm | 3.13 m/s, 22° | - | - |
| 1778012851 | 18.89° C | 62% | 997.9 hPa | 0 mm | 6.26 m/s, 22° | - | - |
| 1778012552 | 18.89° C | 61% | 923.6 hPa | 0 mm | 2.24 m/s, 0° | - | - |
| 1778012252 | 18.89° C | 61% | 926.7 hPa | 0 mm | 3.58 m/s, 22° | - | - |
| 1778011952 | 19.44° C | 59% | 971.7 hPa | 0 mm | 3.58 m/s, 45° | - | - |
| 1778011652 | 19.44° C | 58% | 1046 hPa | 0 mm | 4.02 m/s, 0° | - | - |
| 1778011352 | 19.44° C | 57% | 930.2 hPa | 0 mm | 2.24 m/s, 22° | - | - |
| 1778011052 | 20° C | 55% | 1004.1 hPa | 0 mm | 4.92 m/s, 22° | - | - |
| 1778010871 | 20° C | 55% | 1013.5 hPa | 0 mm | 3.58 m/s, 67° | - | - |
| 1778010752 | 20° C | 54% | 965.4 hPa | 0 mm | 3.58 m/s, 45° | - | - |
* Rain latest hour (hover to see other rain measurements)
** Current wind speed in m/s (hover to see current wind gust speed)